Showing default

COSMOS 2087, 20707

Orbit data source: Space-Track

COSMOS 2087, 20707 is a payload satellite owned by PVO (CIS) in HEO that was launched on Wed, 25 Jul 1990 UTC via an MOLNIYA 8K78M-PVB launch vehicle from the Plesetsk Missile And Space Complex (PKMTR). Payload-class satellites include a variety of spacecraft equipped with specific instruments for various scientific and technological missions. These include communications satellites like Starlink; space stations such as the ISS; scientific satellites like the Hubble; Earth observation satellites from companies like Planet Labs, Umbra, and HawkEye 360; GPS; miniature CubeSats for education and research; and military/defense satellites.

Loading next visibility...
Identifier
20707, 1990-064A
Orbit
HEO
Country
Flag of CISCIS
Related business
Manufacturer
NPOL/KOMET
Mission
Defense Early Warn
Bus & Motor
OKO, Unknown motor
Mass
~1,250 kg wet, ~1,150 kg dry
Launch date (UTC)
1990-07-25 (35 years ago)
Launch vehicle
MOLNIYA 8K78M-PVB
Launch site
Plesetsk Missile And Space Complex (PKMTR)
Object type
Payload
Rocket body
Debris
Shape & HBR
Cyl + 2 Pan, 2.5 m
Radar Cross Section
6.333 m², Large (>1 m²)

Expand to show TLE details & history
Last TLE update: 2 days ago

TLE from 2 days ago
0 COSMOS 2087
1 20707U 90064A   25347.91231836 -.00000374  00000-0  00000-0 0  9994
2 20707  67.7468 198.2586 6147295  29.3730 354.4121  2.00654262259118
Epoch: 2025-12-13T21:53Z
TLE epoch observation values (Epoch: 2025-12-13T21:53:44.306Z)
Latitude
-0.00013°
Longitude
146.97914°
Altitude
4,363.457 km
Speed
7.695 km/s
True Right ascension
13h 12m 59s
True Declination
0° 00' 00"
Sunlit
Object was in daylight at epoch
Visualization orbit readout
Latitude
Unknown
Longitude
Unknown
Altitude
Unknown
Speed
Unknown
Apparent Right ascension
Unknown
Apparent Declination
Unknown
Sunlit
N/A
Visualization observer readout
Local Sidereal Time
13:23:52
Azimuth
Unknown
Elevation
Unknown
Doppler factor
Unknown
Orbital elements
Apogee altitude
36,495.192 km
Perigee altitude
3,851.334 km
Semi-major axis
26,551.4 km
Eccentricity
0.61473
Inclination
67.7468°
RAAN
198.2586°
Arg. of periapsis
29.373°
True anomaly
331.25423°
Mean anomaly
354.4121°
Eccentric anomaly
345.73079°
Mean motion
0.50166 °/min
Orbital period
717.61 mins
BSTAR
0
Loading maneuver chart data...
Computing Atmospheric mass density...
Loading historical data...
Loading historical data...
Loading historical data...
Loading historical data...
Loading historical data...
Loading historical data...
Loading historical data...

Documentation

Showing up to 5 results
|